Content
SEND FEEDBACK

Daily
Averages
Monthly
Summary
Turkmenistan

ASHGABAT, TURKMENISTAN


Home > Asia > Turkmenistan
Elevation: 775 feet     Latitude: 37 58N     Longitude: 058 20E

WEATHER
 
SELECT A DAY
Number of Records: 183,661;   Date Range: 3/15/97 - 12/24/14
 
SHARE

PRINT THIS DATA

[ ← Previous Day ]
WEATHER ALMANAC - JANUARY 19, 2014
[ Next Day → ]
[ °C ]   °F
Weather ElementAverageHighLow
Temperature44.1 °F50 °F (1:00 pm)34 °F (5:00 am)
Dewpoint32 °F36 °F (11:00 pm)29 °F (5:00 am)
Humidity61.4 %87 % (4:00 am)34 % (2:00 pm)
Barometer30.14 in30.27 in (2:00 am)30.06 in (2:00 pm)
Wind Speed4.9 mph8.9 mph (6:00 am)
Weather ElementAverage
Visibility6.1 mi
Wind DirectionSE (133.1 °)

Weather ElementTotal
Precipitation---
Heating Degree Days23 (Base 65)
Averaged from 31 records on January 19, 2014
WEATHER CONDITIONS BREAKOUT
WIND DIRECTION BREAKOUT
WEATHER BY HOUR - JANUARY 19, 2014
[ °C ]   °F
Local TimeTemperatureDewpointHumidityBarometerVisibilityWind DirectionWind SpeedGust SpeedPrecipitationEventsConditions
1:00 AM39.2 °F32.0 °F75 %30.21 in6.2 miSouth (190°)4.5 mphMostly Cloudy
2:00 AM39.0 °F33.0 °F70 %30.27 in6.0 miCalmOvercast
2:00 AM39.2 °F32.0 °F75 %30.21 in6.2 miCalmOvercast
3:00 AM35.6 °F30.2 °F81 %30.21 in5.6 miEast (80°)6.7 mphOvercast
4:00 AM35.6 °F32.0 °F87 %30.21 in6.2 miCalmOvercast
5:00 AM34.0 °F29.0 °F75 %30.26 in6.0 miESE (120°)4.5 mphOvercast
5:00 AM35.6 °F30.2 °F81 %30.18 in6.2 miSE (130°)4.5 mphOvercast
6:00 AM39.2 °F32.0 °F75 %30.18 in6.2 miSE (130°)8.9 mphOvercast
7:00 AM39.2 °F32.0 °F75 %30.18 in6.2 miESE (120°)6.7 mphOvercast
8:00 AM38.0 °F30.0 °F64 %30.22 in6.0 miSE (140°)6.7 mphOvercast
8:00 AM39.2 °F32.0 °F75 %30.18 in6.2 miSE (140°)6.7 mphOvercast
9:00 AM41.0 °F33.8 °F76 %30.18 in6.2 miSSE (150°)6.7 mphOvercast
10:00 AM42.8 °F33.8 °F70 %30.18 in6.2 miESE (120°)6.7 mphMostly Cloudy
11:00 AM45.0 °F33.0 °F51 %30.20 in6.0 miESE (120°)8.9 mphScattered Clouds
11:00 AM44.6 °F33.8 °F66 %30.15 in6.2 miESE (120°)8.9 mphMostly Cloudy
12:00 PM48.2 °F32.0 °F54 %30.12 in6.2 miESE (110°)8.9 mphMostly Cloudy
1:00 PM50.0 °F30.2 °F47 %30.09 in6.2 miESE (120°)8.9 mphMostly Cloudy
2:00 PM50.0 °F30.0 °F34 %30.10 in6.0 miSE (130°)8.9 mphOvercast
2:00 PM50.0 °F30.2 °F47 %30.06 in6.2 miESE (120°)8.9 mphOvercast
3:00 PM50.0 °F30.2 °F47 %30.06 in6.2 miESE (120°)6.7 mphOvercast
4:00 PM50.0 °F32.0 °F50 %30.06 in6.2 miEast (80°)4.5 mphOvercast
5:00 PM49.0 °F32.0 °F40 %30.09 in6.0 miNW (310°)2.2 mphOvercast
5:00 PM50.0 °F32.0 °F50 %30.06 in6.2 miCalmOvercast
6:00 PM50.0 °F32.0 °F50 %30.06 in6.2 miWNW (300°)2.2 mphOvercast
7:00 PM48.2 °F32.0 °F54 %30.09 in6.2 miNNW (330°)4.5 mphOvercast
8:00 PM46.0 °F34.0 °F52 %30.13 in6.0 miCalmPartly Cloudy
8:00 PM46.4 °F32.0 °F57 %30.09 in6.2 miCalmOvercast
9:00 PM46.4 °F32.0 °F57 %30.09 in6.2 miSouth (190°)2.2 mphOvercast
10:00 PM48.2 °F33.8 °F58 %30.09 in6.2 miSouth (170°)4.5 mphOvercast
11:00 PM48.0 °F36.0 °F52 %30.12 in6.0 miSSE (160°)4.5 mphPartly Cloudy
11:00 PM48.2 °F33.8 °F58 %30.09 in6.2 miSSE (160°)4.5 mphOvercast
Hourly data recorded from UTAA, located miles away from Ashgabat, Turkmenistan







STORIES FROM OUR PARTNERS